TimeEDT,TemperatureF,Dew PointF,Humidity,Sea Level PressureIn,VisibilityMPH,Wind Direction,Wind SpeedMPH,Gust SpeedMPH,PrecipitationIn,Events,Conditions,WindDirDegrees,DateUTC
12:05 AM,32.0,15.8,51,29.91,10.0,West,15.0,24.2,N/A,,Clear,260,2014-03-10 04:05:00
12:25 AM,32.0,17.6,55,29.91,10.0,WSW,17.3,25.3,N/A,,Clear,250,2014-03-10 04:25:00
12:45 AM,32.0,17.6,55,29.90,10.0,WSW,16.1,25.3,N/A,,Clear,250,2014-03-10 04:45:00
1:05 AM,32.0,17.6,55,29.89,10.0,WSW,16.1,24.2,N/A,,Scattered Clouds,250,2014-03-10 05:05:00
1:25 AM,32.0,17.6,55,29.88,10.0,WSW,15.0,25.3,N/A,,Scattered Clouds,250,2014-03-10 05:25:00
1:45 AM,32.0,19.4,60,29.88,10.0,West,16.1,26.5,N/A,,Scattered Clouds,260,2014-03-10 05:45:00
2:10 AM,32.0,19.4,60,29.87,10.0,WSW,15.0,27.6,N/A,,Clear,250,2014-03-10 06:10:00
2:30 AM,32.0,19.4,60,29.86,10.0,WSW,17.3,29.9,N/A,,Clear,250,2014-03-10 06:30:00
2:50 AM,32.0,19.4,60,29.86,10.0,WSW,18.4,27.6,N/A,,Clear,250,2014-03-10 06:50:00
3:10 AM,32.0,19.4,60,29.85,10.0,West,16.1,28.8,N/A,,Clear,260,2014-03-10 07:10:00
3:30 AM,32.0,19.4,60,29.85,10.0,West,16.1,27.6,N/A,,Scattered Clouds,260,2014-03-10 07:30:00
3:50 AM,32.0,19.4,60,29.84,10.0,WSW,16.1,28.8,N/A,,Clear,250,2014-03-10 07:50:00
4:10 AM,32.0,19.4,60,29.84,10.0,WSW,17.3,28.8,N/A,,Clear,250,2014-03-10 08:10:00
4:30 AM,32.0,21.2,64,29.83,10.0,WSW,16.1,26.5,N/A,,Scattered Clouds,250,2014-03-10 08:30:00
4:50 AM,32.0,19.4,60,29.83,10.0,WSW,18.4,28.8,N/A,,Mostly Cloudy,250,2014-03-10 08:50:00
5:10 AM,32.0,19.4,60,29.83,10.0,WSW,20.7,31.1,N/A,,Mostly Cloudy,240,2014-03-10 09:10:00
5:30 AM,32.0,19.4,60,29.82,10.0,WSW,16.1,29.9,N/A,,Scattered Clouds,250,2014-03-10 09:30:00
5:50 AM,32.0,19.4,60,29.82,10.0,WSW,19.6,28.8,N/A,,Clear,250,2014-03-10 09:50:00
6:10 AM,32.0,19.4,60,29.82,10.0,WSW,20.7,26.5,N/A,,Clear,250,2014-03-10 10:10:00
6:30 AM,32.0,19.4,60,29.83,10.0,WSW,19.6,33.4,N/A,,Clear,250,2014-03-10 10:30:00
6:50 AM,32.0,19.4,60,29.83,10.0,WSW,18.4,29.9,N/A,,Clear,250,2014-03-10 10:50:00
7:10 AM,32.0,21.2,64,29.81,10.0,WSW,18.4,29.9,N/A,,Clear,250,2014-03-10 11:10:00
7:30 AM,32.0,21.2,64,29.81,10.0,WSW,16.1,25.3,N/A,,Clear,250,2014-03-10 11:30:00
7:50 AM,32.0,21.2,64,29.81,10.0,WSW,16.1,26.5,N/A,,Clear,250,2014-03-10 11:50:00
8:10 AM,32.0,21.2,64,29.82,10.0,WSW,19.6,29.9,N/A,,Scattered Clouds,250,2014-03-10 12:10:00
8:30 AM,32.0,21.2,64,29.81,10.0,WSW,15.0,28.8,N/A,,Clear,250,2014-03-10 12:30:00
8:50 AM,32.0,21.2,64,29.82,10.0,WSW,13.8,25.3,N/A,,Clear,250,2014-03-10 12:50:00
9:10 AM,33.8,21.2,60,29.82,10.0,WSW,17.3,24.2,N/A,,Clear,250,2014-03-10 13:10:00
9:30 AM,35.6,21.2,56,29.82,10.0,West,18.4,21.9,N/A,,Scattered Clouds,260,2014-03-10 13:30:00
9:50 AM,35.6,23.0,60,29.82,10.0,West,13.8,23.0,N/A,,Mostly Cloudy,260,2014-03-10 13:50:00
10:10 AM,35.6,23.0,60,29.82,10.0,WSW,12.7,24.2,N/A,,Mostly Cloudy,250,2014-03-10 14:10:00
10:30 AM,37.4,21.2,52,29.81,10.0,WSW,16.1,24.2,N/A,,Scattered Clouds,250,2014-03-10 14:30:00
10:50 AM,39.2,21.2,49,29.81,10.0,WSW,17.3,26.5,N/A,,Scattered Clouds,250,2014-03-10 14:50:00
11:10 AM,41.0,21.2,45,29.81,10.0,WSW,17.3,25.3,N/A,,Clear,250,2014-03-10 15:10:00
11:30 AM,41.0,21.2,45,29.80,10.0,WSW,16.1,23.0,N/A,,Clear,250,2014-03-10 15:30:00
11:50 AM,41.0,21.2,45,29.78,10.0,WSW,11.5,28.8,N/A,,Scattered Clouds,240,2014-03-10 15:50:00
12:10 PM,42.8,21.2,42,29.79,10.0,WSW,16.1,23.0,N/A,,Scattered Clouds,250,2014-03-10 16:10:00
12:30 PM,42.8,19.4,39,29.79,10.0,WSW,16.1,26.5,N/A,,Mostly Cloudy,250,2014-03-10 16:30:00
12:50 PM,42.8,19.4,39,29.79,10.0,WSW,12.7,25.3,N/A,,Overcast,250,2014-03-10 16:50:00
1:10 PM,44.6,19.4,37,29.78,10.0,WSW,13.8,20.7,N/A,,Mostly Cloudy,250,2014-03-10 17:10:00
1:30 PM,46.4,19.4,34,29.77,10.0,WSW,13.8,24.2,N/A,,Scattered Clouds,250,2014-03-10 17:30:00
1:50 PM,44.6,19.4,37,29.75,10.0,WSW,15.0,25.3,N/A,,Mostly Cloudy,250,2014-03-10 17:50:00
2:10 PM,44.6,19.4,37,29.74,10.0,WSW,13.8,24.2,N/A,,Overcast,250,2014-03-10 18:10:00
2:30 PM,46.4,17.6,32,29.72,10.0,WSW,10.4,17.3,N/A,,Mostly Cloudy,240,2014-03-10 18:30:00
2:50 PM,46.4,17.6,32,29.72,10.0,WSW,17.3,26.5,N/A,,Overcast,250,2014-03-10 18:50:00
3:10 PM,48.2,17.6,30,29.71,10.0,WSW,16.1,28.8,N/A,,Scattered Clouds,250,2014-03-10 19:10:00
3:30 PM,50.0,17.6,28,29.70,10.0,WSW,20.7,32.2,N/A,,Scattered Clouds,250,2014-03-10 19:30:00
3:50 PM,50.0,17.6,28,29.70,10.0,WSW,15.0,28.8,N/A,,Clear,240,2014-03-10 19:50:00
4:10 PM,50.0,17.6,28,29.70,10.0,WSW,18.4,28.8,N/A,,Clear,250,2014-03-10 20:10:00
4:30 PM,51.8,17.6,26,29.70,10.0,West,18.4,26.5,N/A,,Clear,260,2014-03-10 20:30:00
4:50 PM,51.8,17.6,26,29.69,10.0,WSW,16.1,25.3,N/A,,Clear,250,2014-03-10 20:50:00
5:10 PM,51.8,17.6,26,29.70,10.0,West,15.0,25.3,N/A,,Clear,260,2014-03-10 21:10:00
5:30 PM,51.8,17.6,26,29.69,10.0,West,17.3,25.3,N/A,,Clear,260,2014-03-10 21:30:00
5:50 PM,51.8,17.6,26,29.68,10.0,West,17.3,28.8,N/A,,Clear,260,2014-03-10 21:50:00
6:10 PM,51.8,17.6,26,29.68,10.0,WSW,18.4,26.5,N/A,,Clear,250,2014-03-10 22:10:00
6:30 PM,50.0,19.4,30,29.68,10.0,WSW,18.4,26.5,N/A,,Clear,240,2014-03-10 22:30:00
6:50 PM,50.0,19.4,30,29.68,10.0,West,17.3,24.2,N/A,,Clear,260,2014-03-10 22:50:00
7:10 PM,50.0,19.4,30,29.70,10.0,WSW,13.8,24.2,N/A,,Clear,250,2014-03-10 23:10:00
7:30 PM,48.2,21.2,34,29.71,10.0,WSW,9.2,-,N/A,,Clear,250,2014-03-10 23:30:00
7:50 PM,48.2,21.2,34,29.70,10.0,WSW,16.1,21.9,N/A,,Clear,240,2014-03-10 23:50:00
8:10 PM,48.2,21.2,34,29.70,10.0,SW,15.0,24.2,N/A,,Clear,230,2014-03-11 00:10:00
8:30 PM,46.4,23.0,40,29.70,10.0,SW,13.8,27.6,N/A,,Clear,230,2014-03-11 00:30:00
8:50 PM,46.4,23.0,40,29.71,10.0,WSW,10.4,24.2,N/A,,Clear,240,2014-03-11 00:50:00
9:10 PM,46.4,23.0,40,29.71,10.0,WSW,18.4,24.2,N/A,,Clear,240,2014-03-11 01:10:00
9:30 PM,46.4,23.0,40,29.71,10.0,WSW,13.8,21.9,N/A,,Clear,250,2014-03-11 01:30:00
9:50 PM,48.2,23.0,37,29.71,10.0,WSW,13.8,28.8,N/A,,Clear,240,2014-03-11 01:50:00
10:10 PM,46.4,23.0,40,29.72,10.0,WSW,12.7,26.5,N/A,,Clear,250,2014-03-11 02:10:00
10:30 PM,46.4,23.0,40,29.72,10.0,WSW,15.0,21.9,N/A,,Clear,250,2014-03-11 02:30:00
10:50 PM,46.4,23.0,40,29.72,10.0,WSW,13.8,24.2,N/A,,Clear,240,2014-03-11 02:50:00
11:10 PM,46.4,24.8,43,29.72,10.0,WSW,15.0,31.1,N/A,,Clear,250,2014-03-11 03:10:00
11:30 PM,46.4,24.8,43,29.72,10.0,WSW,17.3,25.3,N/A,,Clear,250,2014-03-11 03:30:00
11:50 PM,46.4,26.6,46,29.72,10.0,WSW,17.3,29.9,N/A,,Clear,240,2014-03-11 03:50:00